Regional Weather Roundup
Issued by NWS

Home | Current Version | Previous Version | Graphics & Text | Print | Product List | Glossary On
Versions: 1 2 3 4 5 6 7 8 9 10 11 12 13 14 15 16 17 18 19 20 21 22 23 24 25 26 27 28 29 30 31 32 33 34 35 36 37 38 39 40 41 42 43 44 45 46 47 48 49 50
000
ASUS43 KMPX 190401
RWRMN
WEATHER ROUNDUP FOR MINNESOTA
NATIONAL WEATHER SERVICE TWIN CITIES/CHANHASSEN MN
1100 PM CDT THU SEP 18 2014


NOTE: "FAIR" INDICATES FEW OR NO CLOUDS BELOW 12,000 FEET WITH NO
SIGNIFICANT WEATHER AND/OR OBSTRUCTIONS TO VISIBILITY. N/A MEANS
CURRENT SKY AND/OR WEATHER CONDITIONS ARE NOT AVAILABLE.

MNZ060>063-068>070-190500-
   Twin Cities Metro

CITY           SKY/WX    TMP DP  RH WIND       PRES   REMARKS
TWIN CITIES    PTCLDY    60  54  80 SE12      29.99S
ST PAUL        PTCLDY    60  56  86 SE10      30.00S
CRYSTAL        CLEAR     63  53  70 S9        29.97S
BLAINE         CLEAR     63  57  82 SE9       29.98S
LAKEVILLE      PTCLDY    55  52  88 SE5       30.00S
EDEN PRAIRIE   CLEAR     64  53  67 S12       29.97S
SOUTH ST PAUL  PTCLDY    61  56  81 S10       30.00S
LAKE ELMO      FAIR      61  55  82 S9        30.01F
$$
MNZ001>005-007-008-013>017-022>024-027-028-190500-
   Northwest Minnesota

CITY           SKY/WX    TMP DP  RH WIND       PRES   REMARKS
BEMIDJI        PTCLDY    57  54  88 S14G20    29.85F
HALLOCK        CLOUDY    68  57  68 S25G31    29.65F
ROSEAU         MOCLDY    63  55  77 S25G31    29.71F
WARROAD        CLOUDY    61  55  82 S15G23    29.72F
THIEF RVR FALL MOCLDY    64  55  72 S17G24    29.74F
CROOKSTON      CLOUDY    66  57  72 S21G26    29.73F
FOSSTON        MOCLDY    63  54  72 S16G26    29.80F
DETROIT LAKES  MOCLDY    64  54  68 S13       29.85R
MOORHEAD       CLOUDY    68  57  68 S13G20    29.79S
PARK RAPIDS    PTCLDY    59  55  87 SE15      29.88S
MAHNOMEN       FAIR      65  54  68 S13G22    29.81S
$$
MNZ006-009>011-018-025>026-190500-
   North Central Minnesota

CITY           SKY/WX    TMP DP  RH WIND       PRES   REMARKS
BAUDETTE       CLOUDY    58  53  84 S12       29.78F
FLAG ISLAND    CLOUDY    59  54  82 S22       29.72F
INTL FALLS     CLOUDY    52  48  86 S7        29.86F
WASKISH        CLOUDY    57  54  88 SE5       29.82S
BIG FORK       CLOUDY    54  50  87 S13G20    29.90F
LONGVILLE      PTCLDY    55  54  94 SE12      29.90F
GRAND RAPIDS   CLOUDY    50  46  87 SE13G18   29.93F
CRANE LAKE     CLOUDY    48  46  93 SE6       29.93F
ORR            CLOUDY    50  46  87 S9G16     29.90F
COOK           CLOUDY    50  48  93 S10       29.93F
WALKER         FAIR      58  54  89 SE9G20    29.88F
$$
MNZ012-019>021-037-190500-
   Northeast Minnesota

CITY           SKY/WX    TMP DP  RH WIND       PRES   REMARKS
DULUTH         CLOUDY    49  46  90 SE9       30.01S FOG
ELY            CLOUDY    46  45  93 S9        29.98S FOG
HIBBING        CLOUDY    49  46  90 S9        29.97F
EVELETH        CLOUDY    46  45  93 SE8       29.99F
DULUTH HARBOR  MOCLDY    52  48  87 NE12      30.03S
TWO HARBORS    CLOUDY    46  41  81 CALM      30.02S
SILVER BAY     CLOUDY    43  43 100 CALM      30.03S FOG
GRAND MARAIS     N/A     47  41  80 NE6       30.05F
G MARAIS ARPRT CLOUDY    39  37  93 SE3       30.03F FOG
$$
MNZ029>031-032-039>041-046>048-054>057-064-190500-
   West Central Minnesota

CITY           SKY/WX    TMP DP  RH WIND       PRES   REMARKS
FERGUS FALLS   CLOUDY    64  50  59 S14       29.84S
WHEATON        PTCLDY    61  54  77 SE10      29.85S
MORRIS         PTCLDY    63  52  67 S13       29.86F
ALEXANDRIA     PTCLDY    62  51  67 S13       29.91S
ELBOW LAKE     FAIR      63  52  67 S17G24    29.85F
WADENA         PTCLDY    57  52  82 SE6       29.88S
GLENWOOD       PTCLDY    63  52  67 S10       29.91S
APPLETON       PTCLDY    64  52  63 S12       29.87F
BENSON         PTCLDY    61  52  72 S10       29.89F
ORTONVILLE     CLEAR     63  54  72 S9        29.85F
MADISON        CLEAR     64  55  72 S12       29.88F
WILLMAR        FAIR      63  48  59 S9        29.94S
$$
MNZ033>034-036-042>043-049>051-058-059-190500-
   Central Minnesota

CITY           SKY/WX    TMP DP  RH WIND       PRES   REMARKS
ST CLOUD       CLEAR     63  52  67 S10       29.94S
SAUK CENTRE    FAIR      57  52  81 SE8       29.92S
PAYNESVILLE    PTCLDY    58  50  73 SE9       29.94R
AITKIN         PTCLDY    59  54  82 SE9       29.92F
PINE RIVER     PTCLDY    57  55  94 SE8       29.95S
BRAINERD       PTCLDY    58  55  90 SE10      29.92F
STAPLES        PTCLDY    59  54  82 SE7       29.90S
LONG PRAIRIE   FAIR      57  52  82 SE8       29.93R
LITTLE FALLS   CLEAR     57  52  82 SE7       29.93S
LITCHFIELD     PTCLDY    63  52  67 S5        29.95S
BUFFALO        CLEAR     63  52  67 SE7       29.98R
MAPLE LAKE     PTCLDY    63  55  74 S7        29.97S
$$
MNZ037-044-045-052-053-190500-
   East Central Minnesota

CITY           SKY/WX    TMP DP  RH WIND       PRES   REMARKS
PRINCETON      CLEAR     61  57  88 SE8       29.97R
MORA           CLEAR     55  52  88 SE8       29.99S
CAMBRIDGE      CLEAR     63  52  67 SE8       29.96R
RUSH CITY      MOCLDY    57  54  89 SE8       29.99S
MOOSE LAKE     PTCLDY    45  43  93 NE3       29.97F FOG
HINCKLEY       FAIR      54  54 100 CALM      29.99S
CLOQUET        FOG       48  46  93 E5        30.00F VSB 1
MCGREGOR       PTCLDY    50  48  93 SE8       29.96F
$$
MNZ071>073-080-081-089-090-097-098-190500-
   Southwest Minnesota

CITY           SKY/WX    TMP DP  RH WIND       PRES   REMARKS
MONTEVIDEO     PTCLDY    63  52  67 S9        29.90F
GRANITE FALLS  PTCLDY    60  52  74 SE10      29.92F
CANBY          PTCLDY    63  54  72 S9        29.88F
MARSHALL       MOCLDY    64  52  63 S16       29.90F
REDWOOD FALLS  MOCLDY    63  48  58 S13       29.94R
OLIVIA         MOCLDY    63  48  59 S8        29.93R
PIPESTONE      PTCLDY    61  55  82 S15       29.92F
WINDOM         CLEAR     61  50  67 S12       29.96F
WORTHINGTON    PTCLDY    61  52  72 S13G20    29.97S
JACKSON        CLEAR     61  50  67 S10G18    29.98F
TRACY          CLOUDY    63  53  71 S13G20    29.93F
SLAYTON        PTCLDY    58  54  85 CALM      29.95F
$$
MNZ065>067-074>077-082>085-091>093-190500-
   South Central Minnesota

CITY           SKY/WX    TMP DP  RH WIND       PRES   REMARKS
MANKATO        CLEAR     61  50  67 S12       29.98F
NEW ULM        CLEAR     57  50  77 S9        29.96S
ST JAMES       CLEAR     57  50  77 SE6       29.98S
FAIRMONT       CLEAR     55  43  62 S9        29.99F
GLENCOE        PTCLDY    63  51  66 SE9       29.96S
FARIBAULT      CLEAR     64  50  59 S7        30.01S
OWATONNA       CLEAR     61  52  72 S7        30.01S
WASECA         CLEAR     59  48  67 SE7       30.03S
ALBERT LEA     CLEAR     61  52  72 S9        30.02F
$$
MNZ078>079-086>088-094>096-190500-
   Southeast Minnesota

CITY           SKY/WX    TMP DP  RH WIND       PRES   REMARKS
ROCHESTER      CLEAR     57  53  86 SE10      30.05F
RED WING       CLEAR     63  55  77 SE10      30.01F
STANTON        PTCLDY    60  53  78 S6        30.00S
DODGE CENTER   PTCLDY    57  54  88 S8        30.03F
WINONA         CLEAR     55  54  94 SE7       30.07F
AUSTIN         CLEAR     57  52  82 S8        30.03F
PRESTON        CLEAR     57  56  97 SE8       30.07F
$$
ABBREVIATIONS USED IN REMARKS
   TC - TEMPERATURES IN CELSIUS
  WCI - WIND CHILL INDEX
   HX - HEAT INDEX
  VSB - VISIBILITY
$$



USA.gov is the U.S. government's official web portal to all federal, state and local government web resources and services.